sat.trackr.live / text

‹ back to catalog

KUIPER-00296

NORAD 68595 · 2026-072Y

PAYLOAD ACTIVE UNKNOWN

§ Identity

Operator
Country
US
Launch date
2026-04-04
Launch site
AFETR
Launch vehicle
Mass (kg)
RCS (m²)

External: N2YO · Heavens-Above · Gunter

§ Orbital elements

Epoch: 2026-05-24T21:19:29.786016Z

Period
93.66 min
Inclination
51.8697°
Eccentricity
0.0008679
Mean motion
15.37517459 rev/d
Perigee alt
447.5 km
Apogee alt
459.4 km
Semi-major
6,831.6 km
B*
5.7823e-4
RAAN
289.7569°
Arg perigee
299.3082°
Mean anomaly
60.7037°
Rev number
779

§ Raw data

KUIPER-002961 68595U 26072Y   26144.88853919  .00021305  00000+0  57823-3 0  99962 68595  51.8697 289.7569 0008679 299.3082  60.7037 15.37517459  7793

JSON: /api/v1/satellites/68595 · /tle

For live sub-satellite position, see the globe view (requires WebGL).

§ Visibility from observer

Set your observer location to see the next 7 days of passes ≥ 10°. The values pass through the URL so the page stays shareable.

No JS? Fill the form by hand. The geolocation button needs JavaScript.